| State | Oklahoma | Latest | Good (977 cfs) | |
| River | Illinois River | Rating | Observed | Estimated |
| Updated | 2026-05-10 5:30 (1 hour ago) | Flood - The river is flooding. Obstacles can be treacherous or deadly. The river should be avoided at this stage for casual trips and definitely for the inexperienced. Trips should be attempted only with protective gear and equipment.Flood | (none) | 3576 |
| Discharge | 977 cfs (median: 920 cfs) | High - The river is high and potentially dangerous, especially for the young and / or inexperienced. Normal stream obstacles are sometimes difficult to navigate. Extended distances can be attempted, but canoe travel may not be advisable.High | (none) | 1816 |
| Height | 5.99 feet | Good - Conditions are ideal for a canoe or kayak. Boats typically will drag on fewer than one-quarter of riffles, if at all, and portages are unnecessary or rare. Normal float lengths can be attempted without a problem.Good | 300 | 969 |
| Trend | Falling (falling over 24 hours) | Low - River is low but can still be floated. Some riffles are okay but most come with significant dragging and might need a portage. Float lengths should be reduced to accommodate low flow, dragging, and portages.Low | (none) | 623 |
| USGS | USGS Site ( Duck Duck Go Maps) | Poor - River is too low to float comfortably. Most or all riffles will drag or must be portaged and some obstacles (such as slick shelf rock) cause undue problems. Avoid the river at this stage for casual paddling trips.Poor | (none) | 244 |
A total of 1 rows are displayed.
| Miles | 6 |
| Trips | 1 |
| People | 2 |
| Dates | 1 |
| Years | 1 |
| Months | 1 |
| Rows | 1 |
| Sources | 1 |
BLG - Bluegill
CCF - Channel Catfish
CP - Chain Pickerel
FWD - Freshwater Drum
GSF - Green Sunfish
KSB - Kentucky Spotted Bass
LMB - Largemouth Bass
LSF - Longear Sunfish
RB - Rock Bass / Goggle Eye
RSF - Redear Sunfish
RT - Rainbow Trout
SMB - Smallmouth Bass
WB - White Bass
WF - Whitefish
WL - WalleyeThe classic River Trips application is still available for use. It is updated with the new system using a data retrofit. It is no longer maintained. The original River Trips application is no longer updated (as of 1 Dec 2016) but can be checked for errors or for the condition of the data before it was converted to the new system.
| Observation | Height | Discharge | Maximum Discharge | Minimum Discharge | Mean Discharge | P05 | P10 | P20 | P25 | P50 (Median) | P75 | P80 | P90 | P95 |
|---|---|---|---|---|---|---|---|---|---|---|---|---|---|---|
| 2026-05-10 05:30 | 5.99 | 977 | 51700 (1950) | 174 (1936) | 2670 | 261 | 332 | 437 | 557 | 920 | 1820 | 2150 | 4700 | 9410 |
| 2026-05-10 04:30 | 6.00 | 986 | 51700 (1950) | 174 (1936) | 2670 | 261 | 332 | 437 | 557 | 920 | 1820 | 2150 | 4700 | 9410 |
| 2026-05-10 03:30 | 6.01 | 995 | 51700 (1950) | 174 (1936) | 2670 | 261 | 332 | 437 | 557 | 920 | 1820 | 2150 | 4700 | 9410 |
| 2026-05-10 01:30 | 6.01 | 995 | 51700 (1950) | 174 (1936) | 2670 | 261 | 332 | 437 | 557 | 920 | 1820 | 2150 | 4700 | 9410 |
| 2026-05-10 00:30 | 6.02 | 1000 | 51700 (1950) | 174 (1936) | 2670 | 261 | 332 | 437 | 557 | 920 | 1820 | 2150 | 4700 | 9410 |
| 2026-05-09 23:30 | 6.02 | 1000 | 51700 (1950) | 174 (1936) | 2670 | 261 | 332 | 437 | 557 | 920 | 1820 | 2150 | 4700 | 9410 |
| 2026-05-09 22:30 | 6.03 | 1010 | 16700 (1995) | 185 (1936) | 1740 | 259 | 307 | 414 | 494 | 989 | 1980 | 2220 | 3660 | 6250 |
| 2026-05-09 21:30 | 6.03 | 1010 | 16700 (1995) | 185 (1936) | 1740 | 259 | 307 | 414 | 494 | 989 | 1980 | 2220 | 3660 | 6250 |
| 2026-05-09 20:30 | 6.03 | 1010 | 16700 (1995) | 185 (1936) | 1740 | 259 | 307 | 414 | 494 | 989 | 1980 | 2220 | 3660 | 6250 |
| 2026-05-09 19:30 | 6.04 | 1020 | 16700 (1995) | 185 (1936) | 1740 | 259 | 307 | 414 | 494 | 989 | 1980 | 2220 | 3660 | 6250 |
| 2026-05-09 18:30 | 6.05 | 1030 | 16700 (1995) | 185 (1936) | 1740 | 259 | 307 | 414 | 494 | 989 | 1980 | 2220 | 3660 | 6250 |
| 2026-05-09 17:30 | 6.06 | 1040 | 16700 (1995) | 185 (1936) | 1740 | 259 | 307 | 414 | 494 | 989 | 1980 | 2220 | 3660 | 6250 |
| 2026-05-09 16:30 | 6.05 | 1030 | 16700 (1995) | 185 (1936) | 1740 | 259 | 307 | 414 | 494 | 989 | 1980 | 2220 | 3660 | 6250 |
| 2026-05-09 15:30 | 6.09 | 1070 | 16700 (1995) | 185 (1936) | 1740 | 259 | 307 | 414 | 494 | 989 | 1980 | 2220 | 3660 | 6250 |
| 2026-05-09 14:30 | 6.07 | 1050 | 16700 (1995) | 185 (1936) | 1740 | 259 | 307 | 414 | 494 | 989 | 1980 | 2220 | 3660 | 6250 |
| 2026-05-09 13:30 | 6.10 | 1080 | 16700 (1995) | 185 (1936) | 1740 | 259 | 307 | 414 | 494 | 989 | 1980 | 2220 | 3660 | 6250 |
| 2026-05-09 12:30 | 6.10 | 1080 | 16700 (1995) | 185 (1936) | 1740 | 259 | 307 | 414 | 494 | 989 | 1980 | 2220 | 3660 | 6250 |
| 2026-05-09 11:30 | 6.09 | 1070 | 16700 (1995) | 185 (1936) | 1740 | 259 | 307 | 414 | 494 | 989 | 1980 | 2220 | 3660 | 6250 |
| 2026-05-09 10:30 | 6.11 | 1090 | 16700 (1995) | 185 (1936) | 1740 | 259 | 307 | 414 | 494 | 989 | 1980 | 2220 | 3660 | 6250 |
| 2026-05-09 09:30 | 6.13 | 1110 | 16700 (1995) | 185 (1936) | 1740 | 259 | 307 | 414 | 494 | 989 | 1980 | 2220 | 3660 | 6250 |
| 2026-05-09 08:30 | 6.12 | 1100 | 16700 (1995) | 185 (1936) | 1740 | 259 | 307 | 414 | 494 | 989 | 1980 | 2220 | 3660 | 6250 |
| 2026-05-09 07:30 | 6.13 | 1110 | 16700 (1995) | 185 (1936) | 1740 | 259 | 307 | 414 | 494 | 989 | 1980 | 2220 | 3660 | 6250 |
| 2026-05-09 06:30 | 6.14 | 1120 | 16700 (1995) | 185 (1936) | 1740 | 259 | 307 | 414 | 494 | 989 | 1980 | 2220 | 3660 | 6250 |
| 2026-05-09 05:30 | 6.14 | 1120 | 16700 (1995) | 185 (1936) | 1740 | 259 | 307 | 414 | 494 | 989 | 1980 | 2220 | 3660 | 6250 |
| 2026-05-09 04:30 | 6.15 | 1130 | 16700 (1995) | 185 (1936) | 1740 | 259 | 307 | 414 | 494 | 989 | 1980 | 2220 | 3660 | 6250 |
| 2026-05-09 03:30 | 6.15 | 1130 | 16700 (1995) | 185 (1936) | 1740 | 259 | 307 | 414 | 494 | 989 | 1980 | 2220 | 3660 | 6250 |
| 2026-05-09 02:30 | 6.14 | 1120 | 16700 (1995) | 185 (1936) | 1740 | 259 | 307 | 414 | 494 | 989 | 1980 | 2220 | 3660 | 6250 |
| 2026-05-09 01:30 | 6.13 | 1110 | 16700 (1995) | 185 (1936) | 1740 | 259 | 307 | 414 | 494 | 989 | 1980 | 2220 | 3660 | 6250 |
| 2026-05-09 00:30 | 6.13 | 1110 | 16700 (1995) | 185 (1936) | 1740 | 259 | 307 | 414 | 494 | 989 | 1980 | 2220 | 3660 | 6250 |
| 2026-05-08 23:30 | 6.15 | 1130 | 16700 (1995) | 185 (1936) | 1740 | 259 | 307 | 414 | 494 | 989 | 1980 | 2220 | 3660 | 6250 |
| 2026-05-08 22:30 | 6.17 | 1150 | 42000 (1961) | 182 (1936) | 1990 | 259 | 307 | 393 | 488 | 956 | 1740 | 2150 | 4070 | 7150 |
| 2026-05-08 21:30 | 6.16 | 1140 | 42000 (1961) | 182 (1936) | 1990 | 259 | 307 | 393 | 488 | 956 | 1740 | 2150 | 4070 | 7150 |
| 2026-05-08 20:30 | 6.16 | 1140 | 42000 (1961) | 182 (1936) | 1990 | 259 | 307 | 393 | 488 | 956 | 1740 | 2150 | 4070 | 7150 |
| 2026-05-08 19:30 | 6.14 | 1120 | 42000 (1961) | 182 (1936) | 1990 | 259 | 307 | 393 | 488 | 956 | 1740 | 2150 | 4070 | 7150 |
| 2026-05-08 18:30 | 6.16 | 1140 | 42000 (1961) | 182 (1936) | 1990 | 259 | 307 | 393 | 488 | 956 | 1740 | 2150 | 4070 | 7150 |
| 2026-05-08 17:30 | 6.16 | 1140 | 42000 (1961) | 182 (1936) | 1990 | 259 | 307 | 393 | 488 | 956 | 1740 | 2150 | 4070 | 7150 |
| 2026-05-08 16:30 | 6.18 | 1160 | 42000 (1961) | 182 (1936) | 1990 | 259 | 307 | 393 | 488 | 956 | 1740 | 2150 | 4070 | 7150 |
| 2026-05-08 15:30 | 6.19 | 1170 | 42000 (1961) | 182 (1936) | 1990 | 259 | 307 | 393 | 488 | 956 | 1740 | 2150 | 4070 | 7150 |
| 2026-05-08 14:30 | 6.20 | 1180 | 42000 (1961) | 182 (1936) | 1990 | 259 | 307 | 393 | 488 | 956 | 1740 | 2150 | 4070 | 7150 |
| 2026-05-08 13:30 | 6.19 | 1170 | 42000 (1961) | 182 (1936) | 1990 | 259 | 307 | 393 | 488 | 956 | 1740 | 2150 | 4070 | 7150 |
| 2026-05-08 12:30 | 6.21 | 1190 | 42000 (1961) | 182 (1936) | 1990 | 259 | 307 | 393 | 488 | 956 | 1740 | 2150 | 4070 | 7150 |
| 2026-05-08 11:30 | 6.21 | 1190 | 42000 (1961) | 182 (1936) | 1990 | 259 | 307 | 393 | 488 | 956 | 1740 | 2150 | 4070 | 7150 |
| 2026-05-08 10:30 | 6.23 | 1210 | 42000 (1961) | 182 (1936) | 1990 | 259 | 307 | 393 | 488 | 956 | 1740 | 2150 | 4070 | 7150 |
| 2026-05-08 09:30 | 6.24 | 1220 | 42000 (1961) | 182 (1936) | 1990 | 259 | 307 | 393 | 488 | 956 | 1740 | 2150 | 4070 | 7150 |
| 2026-05-08 08:30 | 6.25 | 1230 | 42000 (1961) | 182 (1936) | 1990 | 259 | 307 | 393 | 488 | 956 | 1740 | 2150 | 4070 | 7150 |
| 2026-05-08 07:30 | 6.25 | 1230 | 42000 (1961) | 182 (1936) | 1990 | 259 | 307 | 393 | 488 | 956 | 1740 | 2150 | 4070 | 7150 |
| 2026-05-08 06:30 | 6.27 | 1250 | 42000 (1961) | 182 (1936) | 1990 | 259 | 307 | 393 | 488 | 956 | 1740 | 2150 | 4070 | 7150 |
| 2026-05-08 05:30 | 6.27 | 1250 | 42000 (1961) | 182 (1936) | 1990 | 259 | 307 | 393 | 488 | 956 | 1740 | 2150 | 4070 | 7150 |
| 2026-05-08 04:30 | 6.27 | 1250 | 42000 (1961) | 182 (1936) | 1990 | 259 | 307 | 393 | 488 | 956 | 1740 | 2150 | 4070 | 7150 |
| 2026-05-08 03:30 | 6.29 | 1270 | 42000 (1961) | 182 (1936) | 1990 | 259 | 307 | 393 | 488 | 956 | 1740 | 2150 | 4070 | 7150 |
| 2026-05-08 02:30 | 6.30 | 1280 | 42000 (1961) | 182 (1936) | 1990 | 259 | 307 | 393 | 488 | 956 | 1740 | 2150 | 4070 | 7150 |
| 2026-05-08 01:30 | 6.31 | 1290 | 42000 (1961) | 182 (1936) | 1990 | 259 | 307 | 393 | 488 | 956 | 1740 | 2150 | 4070 | 7150 |
| 2026-05-08 00:30 | 6.31 | 1290 | 42000 (1961) | 182 (1936) | 1990 | 259 | 307 | 393 | 488 | 956 | 1740 | 2150 | 4070 | 7150 |
| 2026-05-07 23:30 | 6.33 | 1310 | 42000 (1961) | 182 (1936) | 1990 | 259 | 307 | 393 | 488 | 956 | 1740 | 2150 | 4070 | 7150 |
| 2026-05-07 22:30 | 6.33 | 1310 | 18600 (1960) | 174 (1936) | 1860 | 248 | 318 | 408 | 518 | 974 | 1680 | 1960 | 3590 | 7700 |
| 2026-05-07 21:30 | 6.34 | 1320 | 18600 (1960) | 174 (1936) | 1860 | 248 | 318 | 408 | 518 | 974 | 1680 | 1960 | 3590 | 7700 |
| 2026-05-07 20:30 | 6.36 | 1340 | 18600 (1960) | 174 (1936) | 1860 | 248 | 318 | 408 | 518 | 974 | 1680 | 1960 | 3590 | 7700 |
| 2026-05-07 19:30 | 6.36 | 1340 | 18600 (1960) | 174 (1936) | 1860 | 248 | 318 | 408 | 518 | 974 | 1680 | 1960 | 3590 | 7700 |
| 2026-05-07 18:30 | 6.37 | 1350 | 18600 (1960) | 174 (1936) | 1860 | 248 | 318 | 408 | 518 | 974 | 1680 | 1960 | 3590 | 7700 |
| 2026-05-07 17:30 | 6.40 | 1390 | 18600 (1960) | 174 (1936) | 1860 | 248 | 318 | 408 | 518 | 974 | 1680 | 1960 | 3590 | 7700 |
| 2026-05-07 16:30 | 6.41 | 1400 | 18600 (1960) | 174 (1936) | 1860 | 248 | 318 | 408 | 518 | 974 | 1680 | 1960 | 3590 | 7700 |
| 2026-05-07 15:30 | 6.42 | 1410 | 18600 (1960) | 174 (1936) | 1860 | 248 | 318 | 408 | 518 | 974 | 1680 | 1960 | 3590 | 7700 |
| 2026-05-07 14:30 | 6.44 | 1430 | 18600 (1960) | 174 (1936) | 1860 | 248 | 318 | 408 | 518 | 974 | 1680 | 1960 | 3590 | 7700 |
| 2026-05-07 13:30 | 6.46 | 1460 | 18600 (1960) | 174 (1936) | 1860 | 248 | 318 | 408 | 518 | 974 | 1680 | 1960 | 3590 | 7700 |
| 2026-05-07 12:30 | 6.49 | 1490 | 18600 (1960) | 174 (1936) | 1860 | 248 | 318 | 408 | 518 | 974 | 1680 | 1960 | 3590 | 7700 |
| 2026-05-07 11:30 | 6.49 | 1490 | 18600 (1960) | 174 (1936) | 1860 | 248 | 318 | 408 | 518 | 974 | 1680 | 1960 | 3590 | 7700 |
| 2026-05-07 10:30 | 6.52 | 1530 | 18600 (1960) | 174 (1936) | 1860 | 248 | 318 | 408 | 518 | 974 | 1680 | 1960 | 3590 | 7700 |
| 2026-05-07 09:30 | 6.53 | 1540 | 18600 (1960) | 174 (1936) | 1860 | 248 | 318 | 408 | 518 | 974 | 1680 | 1960 | 3590 | 7700 |
| 2026-05-07 08:30 | 6.56 | 1580 | 18600 (1960) | 174 (1936) | 1860 | 248 | 318 | 408 | 518 | 974 | 1680 | 1960 | 3590 | 7700 |
| 2026-05-07 07:30 | 6.58 | 1600 | 18600 (1960) | 174 (1936) | 1860 | 248 | 318 | 408 | 518 | 974 | 1680 | 1960 | 3590 | 7700 |
| 2026-05-07 06:30 | 6.62 | 1650 | 18600 (1960) | 174 (1936) | 1860 | 248 | 318 | 408 | 518 | 974 | 1680 | 1960 | 3590 | 7700 |
| 2026-05-07 05:30 | 6.65 | 1690 | 18600 (1960) | 174 (1936) | 1860 | 248 | 318 | 408 | 518 | 974 | 1680 | 1960 | 3590 | 7700 |
| 2026-05-07 04:30 | 6.68 | 1730 | 18600 (1960) | 174 (1936) | 1860 | 248 | 318 | 408 | 518 | 974 | 1680 | 1960 | 3590 | 7700 |
| 2026-05-07 03:30 | 6.70 | 1750 | 18600 (1960) | 174 (1936) | 1860 | 248 | 318 | 408 | 518 | 974 | 1680 | 1960 | 3590 | 7700 |
| 2026-05-07 02:30 | 6.71 | 1770 | 18600 (1960) | 174 (1936) | 1860 | 248 | 318 | 408 | 518 | 974 | 1680 | 1960 | 3590 | 7700 |
| 2026-05-07 01:30 | 6.73 | 1790 | 18600 (1960) | 174 (1936) | 1860 | 248 | 318 | 408 | 518 | 974 | 1680 | 1960 | 3590 | 7700 |
| 2026-05-07 00:30 | 6.75 | 1820 | 18600 (1960) | 174 (1936) | 1860 | 248 | 318 | 408 | 518 | 974 | 1680 | 1960 | 3590 | 7700 |
| 2026-05-06 23:30 | 6.76 | 1830 | 18600 (1960) | 174 (1936) | 1860 | 248 | 318 | 408 | 518 | 974 | 1680 | 1960 | 3590 | 7700 |
| 2026-05-06 22:30 | 6.80 | 1890 | 62600 (2022) | 200 (1981) | 2450 | 255 | 330 | 436 | 498 | 1010 | 1840 | 2210 | 4430 | 8780 |
| 2026-05-06 21:30 | 6.82 | 1920 | 62600 (2022) | 200 (1981) | 2450 | 255 | 330 | 436 | 498 | 1010 | 1840 | 2210 | 4430 | 8780 |
| 2026-05-06 20:30 | 6.82 | 1920 | 62600 (2022) | 200 (1981) | 2450 | 255 | 330 | 436 | 498 | 1010 | 1840 | 2210 | 4430 | 8780 |
| 2026-05-06 19:30 | 6.85 | 1960 | 62600 (2022) | 200 (1981) | 2450 | 255 | 330 | 436 | 498 | 1010 | 1840 | 2210 | 4430 | 8780 |
| 2026-05-06 18:30 | 6.85 | 1960 | 62600 (2022) | 200 (1981) | 2450 | 255 | 330 | 436 | 498 | 1010 | 1840 | 2210 | 4430 | 8780 |
| 2026-05-06 17:30 | 6.88 | 2010 | 62600 (2022) | 200 (1981) | 2450 | 255 | 330 | 436 | 498 | 1010 | 1840 | 2210 | 4430 | 8780 |
| 2026-05-06 16:30 | 6.83 | 1930 | 62600 (2022) | 200 (1981) | 2450 | 255 | 330 | 436 | 498 | 1010 | 1840 | 2210 | 4430 | 8780 |
| 2026-05-06 15:30 | 6.82 | 1920 | 62600 (2022) | 200 (1981) | 2450 | 255 | 330 | 436 | 498 | 1010 | 1840 | 2210 | 4430 | 8780 |
| 2026-05-06 14:30 | 6.76 | 1830 | 62600 (2022) | 200 (1981) | 2450 | 255 | 330 | 436 | 498 | 1010 | 1840 | 2210 | 4430 | 8780 |
| 2026-05-06 13:30 | 6.66 | 1700 | 62600 (2022) | 200 (1981) | 2450 | 255 | 330 | 436 | 498 | 1010 | 1840 | 2210 | 4430 | 8780 |
| 2026-05-06 12:30 | 6.53 | 1540 | 62600 (2022) | 200 (1981) | 2450 | 255 | 330 | 436 | 498 | 1010 | 1840 | 2210 | 4430 | 8780 |
| 2026-05-06 11:30 | 6.40 | 1390 | 62600 (2022) | 200 (1981) | 2450 | 255 | 330 | 436 | 498 | 1010 | 1840 | 2210 | 4430 | 8780 |
| 2026-05-06 10:30 | 6.31 | 1290 | 62600 (2022) | 200 (1981) | 2450 | 255 | 330 | 436 | 498 | 1010 | 1840 | 2210 | 4430 | 8780 |
| 2026-05-06 09:30 | 6.28 | 1260 | 62600 (2022) | 200 (1981) | 2450 | 255 | 330 | 436 | 498 | 1010 | 1840 | 2210 | 4430 | 8780 |
| 2026-05-06 08:30 | 6.26 | 1240 | 62600 (2022) | 200 (1981) | 2450 | 255 | 330 | 436 | 498 | 1010 | 1840 | 2210 | 4430 | 8780 |
| 2026-05-06 07:30 | 6.26 | 1240 | 62600 (2022) | 200 (1981) | 2450 | 255 | 330 | 436 | 498 | 1010 | 1840 | 2210 | 4430 | 8780 |
| 2026-05-06 06:30 | 6.27 | 1250 | 62600 (2022) | 200 (1981) | 2450 | 255 | 330 | 436 | 498 | 1010 | 1840 | 2210 | 4430 | 8780 |
| 2026-05-06 05:30 | 6.26 | 1240 | 62600 (2022) | 200 (1981) | 2450 | 255 | 330 | 436 | 498 | 1010 | 1840 | 2210 | 4430 | 8780 |
| 2026-05-06 04:30 | 6.27 | 1250 | 62600 (2022) | 200 (1981) | 2450 | 255 | 330 | 436 | 498 | 1010 | 1840 | 2210 | 4430 | 8780 |
| 2026-05-06 03:30 | 6.28 | 1260 | 62600 (2022) | 200 (1981) | 2450 | 255 | 330 | 436 | 498 | 1010 | 1840 | 2210 | 4430 | 8780 |
| 2026-05-06 02:30 | 6.28 | 1260 | 62600 (2022) | 200 (1981) | 2450 | 255 | 330 | 436 | 498 | 1010 | 1840 | 2210 | 4430 | 8780 |
| 2026-05-06 01:30 | 6.28 | 1260 | 62600 (2022) | 200 (1981) | 2450 | 255 | 330 | 436 | 498 | 1010 | 1840 | 2210 | 4430 | 8780 |
| 2026-05-06 00:30 | 6.27 | 1250 | 62600 (2022) | 200 (1981) | 2450 | 255 | 330 | 436 | 498 | 1010 | 1840 | 2210 | 4430 | 8780 |
| 2026-05-05 23:30 | 6.28 | 1260 | 62600 (2022) | 200 (1981) | 2450 | 255 | 330 | 436 | 498 | 1010 | 1840 | 2210 | 4430 | 8780 |
| 2026-05-05 22:30 | 6.29 | 1270 | 34500 (2022) | 204 (1936) | 2240 | 263 | 335 | 434 | 494 | 1090 | 2050 | 2540 | 4540 | 8040 |
| 2026-05-05 21:30 | 6.28 | 1260 | 34500 (2022) | 204 (1936) | 2240 | 263 | 335 | 434 | 494 | 1090 | 2050 | 2540 | 4540 | 8040 |
| 2026-05-05 20:30 | 6.30 | 1280 | 34500 (2022) | 204 (1936) | 2240 | 263 | 335 | 434 | 494 | 1090 | 2050 | 2540 | 4540 | 8040 |
| 2026-05-05 19:30 | 6.30 | 1280 | 34500 (2022) | 204 (1936) | 2240 | 263 | 335 | 434 | 494 | 1090 | 2050 | 2540 | 4540 | 8040 |
| 2026-05-05 18:30 | 6.30 | 1280 | 34500 (2022) | 204 (1936) | 2240 | 263 | 335 | 434 | 494 | 1090 | 2050 | 2540 | 4540 | 8040 |
| 2026-05-05 17:30 | 6.32 | 1300 | 34500 (2022) | 204 (1936) | 2240 | 263 | 335 | 434 | 494 | 1090 | 2050 | 2540 | 4540 | 8040 |
| 2026-05-05 16:30 | 6.32 | 1300 | 34500 (2022) | 204 (1936) | 2240 | 263 | 335 | 434 | 494 | 1090 | 2050 | 2540 | 4540 | 8040 |
| 2026-05-05 15:30 | 6.34 | 1320 | 34500 (2022) | 204 (1936) | 2240 | 263 | 335 | 434 | 494 | 1090 | 2050 | 2540 | 4540 | 8040 |
| 2026-05-05 14:30 | 6.34 | 1320 | 34500 (2022) | 204 (1936) | 2240 | 263 | 335 | 434 | 494 | 1090 | 2050 | 2540 | 4540 | 8040 |
| 2026-05-05 13:30 | 6.35 | 1330 | 34500 (2022) | 204 (1936) | 2240 | 263 | 335 | 434 | 494 | 1090 | 2050 | 2540 | 4540 | 8040 |
| 2026-05-05 12:30 | 6.34 | 1320 | 34500 (2022) | 204 (1936) | 2240 | 263 | 335 | 434 | 494 | 1090 | 2050 | 2540 | 4540 | 8040 |
| 2026-05-05 11:30 | 6.36 | 1340 | 34500 (2022) | 204 (1936) | 2240 | 263 | 335 | 434 | 494 | 1090 | 2050 | 2540 | 4540 | 8040 |
| 2026-05-05 10:30 | 6.37 | 1350 | 34500 (2022) | 204 (1936) | 2240 | 263 | 335 | 434 | 494 | 1090 | 2050 | 2540 | 4540 | 8040 |
| 2026-05-05 09:30 | 6.37 | 1350 | 34500 (2022) | 204 (1936) | 2240 | 263 | 335 | 434 | 494 | 1090 | 2050 | 2540 | 4540 | 8040 |
| 2026-05-05 08:30 | 6.39 | 1380 | 34500 (2022) | 204 (1936) | 2240 | 263 | 335 | 434 | 494 | 1090 | 2050 | 2540 | 4540 | 8040 |
| 2026-05-05 07:30 | 6.39 | 1380 | 34500 (2022) | 204 (1936) | 2240 | 263 | 335 | 434 | 494 | 1090 | 2050 | 2540 | 4540 | 8040 |
| 2026-05-05 06:30 | 6.40 | 1390 | 34500 (2022) | 204 (1936) | 2240 | 263 | 335 | 434 | 494 | 1090 | 2050 | 2540 | 4540 | 8040 |
| 2026-05-05 05:30 | 6.40 | 1390 | 34500 (2022) | 204 (1936) | 2240 | 263 | 335 | 434 | 494 | 1090 | 2050 | 2540 | 4540 | 8040 |
| 2026-05-05 04:30 | 6.40 | 1390 | 34500 (2022) | 204 (1936) | 2240 | 263 | 335 | 434 | 494 | 1090 | 2050 | 2540 | 4540 | 8040 |
| 2026-05-05 03:30 | 6.41 | 1400 | 34500 (2022) | 204 (1936) | 2240 | 263 | 335 | 434 | 494 | 1090 | 2050 | 2540 | 4540 | 8040 |
| 2026-05-05 02:30 | 6.42 | 1410 | 34500 (2022) | 204 (1936) | 2240 | 263 | 335 | 434 | 494 | 1090 | 2050 | 2540 | 4540 | 8040 |
| 2026-05-05 01:30 | 6.41 | 1400 | 34500 (2022) | 204 (1936) | 2240 | 263 | 335 | 434 | 494 | 1090 | 2050 | 2540 | 4540 | 8040 |
| 2026-05-05 00:30 | 6.42 | 1410 | 34500 (2022) | 204 (1936) | 2240 | 263 | 335 | 434 | 494 | 1090 | 2050 | 2540 | 4540 | 8040 |
| 2026-05-04 23:30 | 6.43 | 1420 | 34500 (2022) | 204 (1936) | 2240 | 263 | 335 | 434 | 494 | 1090 | 2050 | 2540 | 4540 | 8040 |
| 2026-05-04 22:30 | 6.44 | 1430 | 43100 (1990) | 196 (1936) | 2320 | 274 | 335 | 450 | 550 | 1150 | 2490 | 2760 | 4530 | 8610 |
| 2026-05-04 21:30 | 6.44 | 1430 | 43100 (1990) | 196 (1936) | 2320 | 274 | 335 | 450 | 550 | 1150 | 2490 | 2760 | 4530 | 8610 |
| 2026-05-04 20:30 | 6.46 | 1460 | 43100 (1990) | 196 (1936) | 2320 | 274 | 335 | 450 | 550 | 1150 | 2490 | 2760 | 4530 | 8610 |
| 2026-05-04 19:30 | 6.46 | 1460 | 43100 (1990) | 196 (1936) | 2320 | 274 | 335 | 450 | 550 | 1150 | 2490 | 2760 | 4530 | 8610 |
| 2026-05-04 18:30 | 6.47 | 1470 | 43100 (1990) | 196 (1936) | 2320 | 274 | 335 | 450 | 550 | 1150 | 2490 | 2760 | 4530 | 8610 |
| 2026-05-04 17:30 | 6.48 | 1480 | 43100 (1990) | 196 (1936) | 2320 | 274 | 335 | 450 | 550 | 1150 | 2490 | 2760 | 4530 | 8610 |
| 2026-05-04 16:30 | 6.49 | 1490 | 43100 (1990) | 196 (1936) | 2320 | 274 | 335 | 450 | 550 | 1150 | 2490 | 2760 | 4530 | 8610 |
| 2026-05-04 15:30 | 6.52 | 1530 | 43100 (1990) | 196 (1936) | 2320 | 274 | 335 | 450 | 550 | 1150 | 2490 | 2760 | 4530 | 8610 |
| 2026-05-04 14:30 | 6.50 | 1500 | 43100 (1990) | 196 (1936) | 2320 | 274 | 335 | 450 | 550 | 1150 | 2490 | 2760 | 4530 | 8610 |
| 2026-05-04 13:30 | 6.53 | 1540 | 43100 (1990) | 196 (1936) | 2320 | 274 | 335 | 450 | 550 | 1150 | 2490 | 2760 | 4530 | 8610 |
| 2026-05-04 12:30 | 6.54 | 1550 | 43100 (1990) | 196 (1936) | 2320 | 274 | 335 | 450 | 550 | 1150 | 2490 | 2760 | 4530 | 8610 |
| 2026-05-04 11:30 | 6.54 | 1550 | 43100 (1990) | 196 (1936) | 2320 | 274 | 335 | 450 | 550 | 1150 | 2490 | 2760 | 4530 | 8610 |
| 2026-05-04 10:30 | 6.56 | 1580 | 43100 (1990) | 196 (1936) | 2320 | 274 | 335 | 450 | 550 | 1150 | 2490 | 2760 | 4530 | 8610 |
| 2026-05-04 09:30 | 6.56 | 1580 | 43100 (1990) | 196 (1936) | 2320 | 274 | 335 | 450 | 550 | 1150 | 2490 | 2760 | 4530 | 8610 |
| 2026-05-04 08:30 | 6.58 | 1600 | 43100 (1990) | 196 (1936) | 2320 | 274 | 335 | 450 | 550 | 1150 | 2490 | 2760 | 4530 | 8610 |
| 2026-05-04 07:30 | 6.58 | 1600 | 43100 (1990) | 196 (1936) | 2320 | 274 | 335 | 450 | 550 | 1150 | 2490 | 2760 | 4530 | 8610 |
| 2026-05-04 06:30 | 6.59 | 1610 | 43100 (1990) | 196 (1936) | 2320 | 274 | 335 | 450 | 550 | 1150 | 2490 | 2760 | 4530 | 8610 |
| 2026-05-04 05:30 | 6.60 | 1630 | 43100 (1990) | 196 (1936) | 2320 | 274 | 335 | 450 | 550 | 1150 | 2490 | 2760 | 4530 | 8610 |
| 2026-05-04 04:30 | 6.61 | 1640 | 43100 (1990) | 196 (1936) | 2320 | 274 | 335 | 450 | 550 | 1150 | 2490 | 2760 | 4530 | 8610 |
| 2026-05-04 03:30 | 6.61 | 1640 | 43100 (1990) | 196 (1936) | 2320 | 274 | 335 | 450 | 550 | 1150 | 2490 | 2760 | 4530 | 8610 |
| 2026-05-04 01:30 | 6.62 | 1650 | 43100 (1990) | 196 (1936) | 2320 | 274 | 335 | 450 | 550 | 1150 | 2490 | 2760 | 4530 | 8610 |
| 2026-05-04 00:30 | 6.65 | 1690 | 43100 (1990) | 196 (1936) | 2320 | 274 | 335 | 450 | 550 | 1150 | 2490 | 2760 | 4530 | 8610 |
| 2026-05-03 23:30 | 6.64 | 1680 | 43100 (1990) | 196 (1936) | 2320 | 274 | 335 | 450 | 550 | 1150 | 2490 | 2760 | 4530 | 8610 |
| 2026-05-03 22:30 | 6.66 | 1700 | 19800 (1990) | 189 (1936) | 2060 | 286 | 342 | 469 | 581 | 1110 | 2090 | 2770 | 5250 | 7670 |
| 2026-05-03 21:30 | 6.66 | 1700 | 19800 (1990) | 189 (1936) | 2060 | 286 | 342 | 469 | 581 | 1110 | 2090 | 2770 | 5250 | 7670 |
| 2026-05-03 20:30 | 6.68 | 1730 | 19800 (1990) | 189 (1936) | 2060 | 286 | 342 | 469 | 581 | 1110 | 2090 | 2770 | 5250 | 7670 |
| 2026-05-03 19:30 | 6.69 | 1740 | 19800 (1990) | 189 (1936) | 2060 | 286 | 342 | 469 | 581 | 1110 | 2090 | 2770 | 5250 | 7670 |
| 2026-05-03 18:30 | 6.70 | 1750 | 19800 (1990) | 189 (1936) | 2060 | 286 | 342 | 469 | 581 | 1110 | 2090 | 2770 | 5250 | 7670 |
| 2026-05-03 17:30 | 6.71 | 1770 | 19800 (1990) | 189 (1936) | 2060 | 286 | 342 | 469 | 581 | 1110 | 2090 | 2770 | 5250 | 7670 |
| 2026-05-03 16:30 | 6.72 | 1780 | 19800 (1990) | 189 (1936) | 2060 | 286 | 342 | 469 | 581 | 1110 | 2090 | 2770 | 5250 | 7670 |
| 2026-05-03 15:30 | 6.74 | 1810 | 19800 (1990) | 189 (1936) | 2060 | 286 | 342 | 469 | 581 | 1110 | 2090 | 2770 | 5250 | 7670 |
| 2026-05-03 14:30 | 6.75 | 1820 | 19800 (1990) | 189 (1936) | 2060 | 286 | 342 | 469 | 581 | 1110 | 2090 | 2770 | 5250 | 7670 |
| 2026-05-03 13:30 | 6.77 | 1850 | 19800 (1990) | 189 (1936) | 2060 | 286 | 342 | 469 | 581 | 1110 | 2090 | 2770 | 5250 | 7670 |
| 2026-05-03 12:30 | 6.78 | 1860 | 19800 (1990) | 189 (1936) | 2060 | 286 | 342 | 469 | 581 | 1110 | 2090 | 2770 | 5250 | 7670 |
| 2026-05-03 11:30 | 6.79 | 1880 | 19800 (1990) | 189 (1936) | 2060 | 286 | 342 | 469 | 581 | 1110 | 2090 | 2770 | 5250 | 7670 |
| 2026-05-03 10:30 | 6.79 | 1880 | 19800 (1990) | 189 (1936) | 2060 | 286 | 342 | 469 | 581 | 1110 | 2090 | 2770 | 5250 | 7670 |
| 2026-05-03 09:30 | 6.82 | 1920 | 19800 (1990) | 189 (1936) | 2060 | 286 | 342 | 469 | 581 | 1110 | 2090 | 2770 | 5250 | 7670 |
| 2026-05-03 08:30 | 6.83 | 1930 | 19800 (1990) | 189 (1936) | 2060 | 286 | 342 | 469 | 581 | 1110 | 2090 | 2770 | 5250 | 7670 |
| 2026-05-03 07:30 | 6.84 | 1950 | 19800 (1990) | 189 (1936) | 2060 | 286 | 342 | 469 | 581 | 1110 | 2090 | 2770 | 5250 | 7670 |
| 2026-05-03 06:30 | 6.85 | 1960 | 19800 (1990) | 189 (1936) | 2060 | 286 | 342 | 469 | 581 | 1110 | 2090 | 2770 | 5250 | 7670 |
| 2026-05-03 05:30 | 6.86 | 1980 | 19800 (1990) | 189 (1936) | 2060 | 286 | 342 | 469 | 581 | 1110 | 2090 | 2770 | 5250 | 7670 |
| 2026-05-03 04:30 | 6.87 | 1990 | 19800 (1990) | 189 (1936) | 2060 | 286 | 342 | 469 | 581 | 1110 | 2090 | 2770 | 5250 | 7670 |
| 2026-05-03 03:30 | 6.89 | 2020 | 19800 (1990) | 189 (1936) | 2060 | 286 | 342 | 469 | 581 | 1110 | 2090 | 2770 | 5250 | 7670 |
| 2026-05-03 02:30 | 6.91 | 2050 | 19800 (1990) | 189 (1936) | 2060 | 286 | 342 | 469 | 581 | 1110 | 2090 | 2770 | 5250 | 7670 |
| 2026-05-03 01:30 | 6.91 | 2050 | 19800 (1990) | 189 (1936) | 2060 | 286 | 342 | 469 | 581 | 1110 | 2090 | 2770 | 5250 | 7670 |
| 2026-05-03 00:30 | 6.90 | 2040 | 19800 (1990) | 189 (1936) | 2060 | 286 | 342 | 469 | 581 | 1110 | 2090 | 2770 | 5250 | 7670 |
| 2026-05-02 23:30 | 6.93 | 2080 | 19800 (1990) | 189 (1936) | 2060 | 286 | 342 | 469 | 581 | 1110 | 2090 | 2770 | 5250 | 7670 |
A total of 173 rows are displayed for years 1936 through 2024.